Flag for USA

Past Weather in Rutland, Vermont, USA — Yesterday and Last 2 Weeks

Now
61 °F

Clear.


Feels Like: 61 °F
Forecast: 66 / 51 °F
Wind: 10 mph from Southwest

Location: Rutland State
Current Time: Oct 1, 2020 at 4:01:48 am
Latest Report: Oct 1, 2020 at 2:56 am
Visibility: 10 mi
Pressure29.77 "Hg
Humidity: 54%
Dew Point: 44 °F
Location of RutlandLocation

Past Weather in Rutland — Graph

°F

Rutland Temperature Yesterday

Maximum temperature yesterday: 63 °F (at 4:56 pm)
Minimum temperature yesterday: 51 °F (at 10:56 pm)
Average temperature yesterday: 56 °F

High & Low Weather Summary for the Past Weeks

 TemperatureHumidityPressure
High79 °F (Sep 26, 2:56 pm)100% (Sep 16, 5:56 am)30.63 "Hg (Sep 16, 5:56 am)
Low29 °F (Sep 19, 5:56 am)22% (Sep 22, 4:56 pm)29.39 "Hg (Sep 30, 4:56 am)
Average57 °F77%30.03 "Hg
* Reported Sep 16 1:56 am — Oct 1 1:56 am, Rutland. Weather by CustomWeather, © 2020

Note: Actual official high and low records may vary slightly from our data, if they occured in-between our weather recording intervals... More about our weather records

Rutland Weather History for the Previous 24 Hours

Scroll right to see more
 ConditionsComfort  
Time TempWeatherWind HumidityBarometerVisibility
1:56 am
Thu, Oct 1
59 °FPassing clouds.7 mph60%29.76 "Hg10 mi
12:56 am54 °FPassing clouds.8 mph74%29.75 "Hg10 mi
11:56 pm
Wed, Sep 30
51 °FPassing clouds.8 mph83%29.75 "Hg10 mi
10:56 pm51 °FClear.8 mph83%29.76 "Hg10 mi
9:56 pm53 °FClear.9 mph77%29.75 "Hg10 mi
8:56 pm54 °FClear.6 mph77%29.74 "Hg10 mi
7:56 pm54 °FClear.6 mph80%29.72 "Hg10 mi
6:56 pm57 °FClear.3 mph69%29.70 "Hg10 mi
5:56 pm62 °FPassing clouds.8 mph54%29.67 "Hg10 mi
4:56 pm63 °FScattered clouds.6 mph56%29.64 "Hg10 mi
3:56 pm62 °FPassing clouds.8 mph60%29.63 "Hg10 mi
2:56 pm60 °FScattered clouds.5 mph72%29.63 "Hg10 mi
2:33 pm59 °FScattered clouds.9 mph77%29.64 "Hg10 mi
1:56 pm56 °FLight rain. Cloudy.10 mph90%29.61 "Hg9 mi
1:40 pm59 °FLight rain. Cloudy.12 mph77%29.62 "Hg9 mi
12:56 pm58 °FMostly cloudy.10 mph84%29.59 "Hg10 mi
11:56 am57 °FMostly cloudy.10 mph87%29.56 "Hg10 mi
10:56 am56 °FLight rain. Overcast.7 mph97%29.54 "Hg10 mi
10:40 am55 °FLight rain. Fog.7 mph100%29.54 "Hg4 mi
9:56 am55 °FLight rain. Fog.5 mph100%29.50 "Hg6 mi
8:56 am54 °FOvercast.6 mph100%29.46 "Hg10 mi
8:19 am54 °FLight rain. Mostly cloudy.N/A100%29.48 "Hg10 mi
7:56 am54 °FMore clouds than sun.5 mph100%29.45 "Hg10 mi
7:26 am54 °FLight rain. Mostly cloudy.3 mph100%29.46 "Hg10 mi
6:56 am53 °FLight rain. Mostly cloudy.7 mph100%29.49 "Hg10 mi
5:56 am53 °FRain. Overcast.3 mph100%29.41 "Hg8 mi
5:37 am54 °FHeavy rain. Fog.6 mph100%29.45 "Hg5 mi
4:56 am54 °FHeavy rain. Mostly cloudy.13 mph100%29.39 "Hg7 mi
4:23 am54 °FRain. Mostly cloudy.7 mph100%29.43 "Hg7 mi
4:07 am54 °FRain. Mostly cloudy.3 mph100%29.46 "Hg9 mi
Weather by CustomWeather, © 2020

See weather overview